When you browse on this site, cookies collect data to enhance your experience and personalize the content and advertising you see.
Visit our Privacy Policy to learn more. By continuing to use the site, you agree to this use of cookies and data.
  • In Switzerland
  • List of Countries
  • For 7 days
  • Water Temperature
  • Weather Map
  • Weather Widgets
  • user-avatar
    Login

    Hourly Weather Dijon

    Today, 19 February, Wednesday

    Time Temperature Precipitation Wind Pressure Humidity
    00:00 +2°C° 0 mm 5 mps 744 mmHg 89%
    01:00 +2°C° 0.1 mm 5 mps 744 mmHg 89%
    02:00 +3°C° 0.1 mm 6 mps 743 mmHg 89%
    03:00 +3°C° 0.1 mm 6 mps 742 mmHg 89%
    04:00 +3°C° 1 mm 6 mps 742 mmHg 90%
    05:00 +3°C° 1 mm 6 mps 742 mmHg 91%
    06:00 +4°C° 0 mm 6 mps 743 mmHg 91%
    07:00 +4°C° 0.3 mm 6 mps 743 mmHg 87%
    08:00 +4°C° 0.3 mm 6 mps 743 mmHg 83%
    09:00 +4°C° 0.3 mm 6 mps 744 mmHg 79%
    10:00 +6°C° 0 mm 5 mps 744 mmHg 75%
    11:00 +6°C° 0 mm 5 mps 745 mmHg 72%
    12:00 +7°C° 0 mm 4 mps 745 mmHg 68%
    13:00 +7°C° 0 mm 4 mps 745 mmHg 68%
    14:00 +7°C° 0 mm 4 mps 745 mmHg 68%
    15:00 +7°C° 0 mm 4 mps 744 mmHg 68%
    16:00 +7°C° 0 mm 3 mps 744 mmHg 73%
    17:00 +5°C° 0 mm 3 mps 744 mmHg 78%
    18:00 +6°C° 0 mm 2 mps 744 mmHg 83%
    19:00 +5°C° 0.1 mm 2 mps 744 mmHg 86%
    20:00 +5°C° 0.1 mm 2 mps 744 mmHg 88%
    21:00 +4°C° 0.1 mm 3 mps 744 mmHg 91%
    22:00 +4°C° 0.1 mm 3 mps 744 mmHg 91%
    23:00 +4°C° 0.1 mm 3 mps 743 mmHg 92%

    Tomorrow, 20 February, Thursday

    Time Temperature Precipitation Wind Pressure Humidity
    00:00 +4°C° 0.1 mm 3 mps 743 mmHg 92%
    01:00 +4°C° 0 mm 3 mps 743 mmHg 92%
    02:00 +4°C° 0 mm 3 mps 742 mmHg 92%
    03:00 +4°C° 0 mm 3 mps 742 mmHg 92%
    04:00 +4°C° 0 mm 3 mps 742 mmHg 93%
    05:00 +3°C° 0 mm 3 mps 742 mmHg 94%
    06:00 +4°C° 0 mm 2 mps 741 mmHg 95%
    07:00 +4°C° 0 mm 3 mps 741 mmHg 92%
    08:00 +5°C° 0 mm 3 mps 741 mmHg 89%
    09:00 +7°C° 0 mm 3 mps 741 mmHg 87%
    10:00 +8°C° 0 mm 3 mps 741 mmHg 81%
    11:00 +8°C° 0 mm 4 mps 741 mmHg 76%
    12:00 +10°C° 0 mm 4 mps 740 mmHg 70%
    13:00 +10°C° 0 mm 4 mps 740 mmHg 70%
    14:00 +10°C° 0 mm 4 mps 740 mmHg 70%
    15:00 +10°C° 0 mm 4 mps 740 mmHg 70%
    16:00 +8°C° 0 mm 4 mps 740 mmHg 73%
    17:00 +8°C° 0 mm 4 mps 741 mmHg 76%
    18:00 +8°C° 0 mm 3 mps 741 mmHg 79%
    19:00 +7°C° 0 mm 4 mps 741 mmHg 79%
    20:00 +7°C° 0 mm 4 mps 742 mmHg 80%
    21:00 +6°C° 0 mm 4 mps 743 mmHg 80%
    22:00 +6°C° 0.1 mm 4 mps 743 mmHg 83%
    23:00 +6°C° 0.1 mm 4 mps 744 mmHg 85%

    Day after tomorrow, 21 February, Friday

    Time Temperature Precipitation Wind Pressure Humidity
    00:00 +7°C° 0.1 mm 3 mps 744 mmHg 88%
    01:00 +5°C° 0 mm 3 mps 745 mmHg 87%
    02:00 +5°C° 0 mm 3 mps 745 mmHg 86%
    03:00 +4°C° 0 mm 3 mps 745 mmHg 85%
    04:00 +4°C° 0 mm 2 mps 746 mmHg 83%
    05:00 +3°C° 0 mm 2 mps 746 mmHg 81%
    06:00 +2°C° 0 mm 2 mps 746 mmHg 79%
    13:00 +8°C° 0 mm 1 mps 748 mmHg 52%
    14:00 +8°C° 0 mm 1 mps 747 mmHg 52%
    15:00 +9°C° 0 mm 1 mps 747 mmHg 52%
    16:00 +7°C° 0 mm 1 mps 747 mmHg 58%
    17:00 +6°C° 0 mm 1 mps 747 mmHg 63%
    18:00 +5°C° 0 mm 1 mps 747 mmHg 69%
    19:00 +5°C° 0 mm 1 mps 747 mmHg 70%
    20:00 +5°C° 0 mm 1 mps 747 mmHg 71%
    21:00 +3°C° 0 mm 0 mps 747 mmHg 73%
    22:00 +3°C° 0 mm 0 mps 747 mmHg 74%
    23:00 +3°C° 0 mm 0 mps 747 mmHg 74%

    22 February, Saturday

    Time Temperature Precipitation Wind Pressure Humidity
    00:00 +3°C° 0 mm 0 mps 747 mmHg 75%
    01:00 +4°C° 0 mm 1 mps 747 mmHg 75%
    02:00 +3°C° 0 mm 1 mps 747 mmHg 76%
    03:00 +3°C° 0 mm 1 mps 746 mmHg 76%
    04:00 +3°C° 0 mm 1 mps 746 mmHg 77%
    05:00 +3°C° 0 mm 1 mps 747 mmHg 77%
    06:00 +3°C° 0 mm 1 mps 747 mmHg 78%
    07:00 +4°C° 0 mm 1 mps 747 mmHg 75%
    08:00 +4°C° 0 mm 2 mps 747 mmHg 72%
    09:00 +5°C° 0 mm 2 mps 747 mmHg 70%
    10:00 +6°C° 0 mm 2 mps 747 mmHg 66%
    11:00 +8°C° 0 mm 2 mps 747 mmHg 62%
    12:00 +9°C° 0 mm 2 mps 747 mmHg 58%
    13:00 +10°C° 0 mm 2 mps 747 mmHg 59%
    14:00 +10°C° 0 mm 2 mps 747 mmHg 60%
    15:00 +11°C° 0 mm 3 mps 746 mmHg 61%
    16:00 +9°C° 0 mm 2 mps 747 mmHg 66%
    17:00 +8°C° 0 mm 2 mps 747 mmHg 70%
    18:00 +6°C° 0 mm 2 mps 747 mmHg 75%
    19:00 +6°C° 0 mm 2 mps 747 mmHg 76%
    20:00 +5°C° 0 mm 2 mps 747 mmHg 77%
    21:00 +6°C° 0 mm 1 mps 747 mmHg 77%
    22:00 +4°C° 0 mm 2 mps 748 mmHg 78%
    23:00 +4°C° 0 mm 2 mps 748 mmHg 78%

    23 February, Sunday

    Time Temperature Precipitation Wind Pressure Humidity
    00:00 +4°C° 0 mm 2 mps 748 mmHg 79%
    01:00 +4°C° 0 mm 2 mps 747 mmHg 80%
    02:00 +3°C° 0 mm 2 mps 747 mmHg 80%
    03:00 +3°C° 0 mm 2 mps 746 mmHg 81%
    04:00 +3°C° 0 mm 2 mps 746 mmHg 81%
    05:00 +3°C° 0 mm 2 mps 746 mmHg 81%
    06:00 +3°C° 0 mm 1 mps 746 mmHg 81%
    07:00 +4°C° 0 mm 2 mps 746 mmHg 78%
    08:00 +5°C° 0 mm 2 mps 746 mmHg 74%
    09:00 +7°C° 0 mm 3 mps 746 mmHg 70%
    10:00 +8°C° 0 mm 4 mps 745 mmHg 66%
    11:00 +11°C° 0 mm 4 mps 745 mmHg 62%
    12:00 +12°C° 0 mm 5 mps 745 mmHg 57%
    13:00 +13°C° 0 mm 5 mps 744 mmHg 57%
    14:00 +13°C° 0 mm 5 mps 744 mmHg 56%
    15:00 +14°C° 0 mm 5 mps 743 mmHg 55%
    16:00 +12°C° 0 mm 4 mps 744 mmHg 60%
    17:00 +10°C° 0 mm 4 mps 744 mmHg 65%
    18:00 +7°C° 0 mm 4 mps 744 mmHg 71%
    19:00 +7°C° 0 mm 4 mps 745 mmHg 74%
    20:00 +7°C° 0 mm 5 mps 745 mmHg 78%
    21:00 +7°C° 0 mm 5 mps 746 mmHg 81%
    22:00 +7°C° 0 mm 4 mps 746 mmHg 84%
    23:00 +8°C° 0 mm 4 mps 747 mmHg 86%

    24 February, Monday

    Time Temperature Precipitation Wind Pressure Humidity
    00:00 +8°C° 0 mm 4 mps 747 mmHg 88%
    01:00 +8°C° 0 mm 3 mps 747 mmHg 88%
    02:00 +7°C° 0 mm 2 mps 747 mmHg 89%
    03:00 +7°C° 0 mm 2 mps 748 mmHg 89%
    04:00 +7°C° 0 mm 2 mps 748 mmHg 88%
    05:00 +6°C° 0 mm 2 mps 748 mmHg 86%
    06:00 +6°C° 0 mm 2 mps 748 mmHg 85%
    07:00 +6°C° 0 mm 2 mps 748 mmHg 82%
    08:00 +7°C° 0 mm 2 mps 747 mmHg 78%
    09:00 +7°C° 0 mm 2 mps 747 mmHg 75%
    10:00 +10°C° 0 mm 1 mps 747 mmHg 72%
    11:00 +11°C° 0 mm 1 mps 747 mmHg 70%
    12:00 +12°C° 0 mm 1 mps 746 mmHg 68%
    13:00 +12°C° 0 mm 1 mps 746 mmHg 67%
    14:00 +13°C° 0 mm 1 mps 745 mmHg 67%
    15:00 +13°C° 0 mm 2 mps 744 mmHg 66%
    16:00 +12°C° 0 mm 2 mps 744 mmHg 72%
    17:00 +10°C° 0 mm 1 mps 744 mmHg 79%
    18:00 +9°C° 0 mm 1 mps 743 mmHg 85%
    19:00 +9°C° 0 mm 1 mps 743 mmHg 87%
    20:00 +8°C° 0 mm 1 mps 743 mmHg 89%
    21:00 +8°C° 0 mm 1 mps 743 mmHg 90%
    22:00 +8°C° 0 mm 1 mps 742 mmHg 91%
    23:00 +7°C° 0 mm 2 mps 742 mmHg 92%
    Show more